GW2622 Weather Reports


time (UTC)temp
C
wind
direction
speed
KPH
gust
KPH
rain 1hr
cm
rain 24hr
cm
rain mn
cm
humidity
%
barometer
mb
20260504190032 27 346 9.7 24.1 0.00 0.00 0.00 32 1000.2
20260504185530 26 266 8.0 11.3 0.00 0.00 0.00 34 1000.1
20260504185026 27 278 11.3 25.7 0.00 0.00 0.00 33 1000.4
20260504184521 27 258 8.0 17.7 0.00 0.00 0.00 32 1000.4
20260504184017 27 286 9.7 17.7 0.00 0.00 0.00 32 1000.1
20260504183515 27 205 6.4 12.9 0.00 0.00 0.00 37 1000.3
20260504183013 27 279 4.8 17.7 0.00 0.00 0.00 34 1000.3
20260504182509 27 40 6.4 22.5 0.00 0.00 0.00 33 1000.2
20260504182006 27 300 14.5 25.7 0.00 0.00 0.00 33 1000.3
20260504181503 27 232 8.0 17.7 0.00 0.00 0.00 32 1000.2
20260504181002 26 275 6.4 16.1 0.00 0.00 0.00 33 1000.2
20260504180500 27 306 8.0 33.8 0.00 0.00 0.00 33 1000.3
20260504175958 27 287 12.9 20.9 0.00 0.00 0.00 33 1000.3
20260504175455 27 254 11.3 14.5 0.00 0.00 0.00 35 1000.2
20260504174953 27 309 8.0 25.7 0.00 0.00 0.00 35 1000.2
20260504174450 26 301 9.7 16.1 0.00 0.00 0.00 38 1000.2
20260504173947 26 222 8.0 11.3 0.00 0.00 0.00 37 1000.4
20260504173443 27 259 14.5 17.7 0.00 0.00 0.00 36 1000.5
20260504172941 27 266 6.4 22.5 0.00 0.00 0.00 39 1000.5
20260504172437 26 283 4.8 14.5 0.00 0.00 0.00 39 1000.3
20260504171934 26 261 8.0 14.5 0.00 0.00 0.00 39 1000.5
20260504171431 26 232 11.3 14.5 0.00 0.00 0.00 37 1000.5
20260504170928 26 242 9.7 12.9 0.00 0.00 0.00 43 1000.5
20260504170424 26 221 4.8 12.9 0.00 0.00 0.00 44 1000.7
20260504160343 23 206 8.0 11.3 0.00 0.00 0.00 49 1000.8
20260504150808 22 218 4.8 8.0 0.00 0.00 0.00 53 1000.9
20260504150304 22 259 8.0 11.3 0.00 0.00 0.00 52 1001.1
20260504141229 18 256 4.8 11.3 0.00 0.00 0.00 61 1001.4
20260504140725 18 209 4.8 11.3 0.00 0.00 0.00 61 1001.4
20260504140221 18 218 4.8 9.7 0.00 0.00 0.00 62 1001.6
20260504130650 13 222 9.7 11.3 0.00 0.00 0.00 68 1001.5
20260504130146 13 230 4.8 9.7 0.00 0.00 0.00 69 1001.6
20260504120110 10 218 3.2 4.8 0.00 0.00 0.00 73 1002.2
20260504110538 10 219 1.6 1.6 0.00 0.00 0.00 75 1002.2
20260504100459 10 219 0.0 0.0 0.00 0.00 0.00 74 1002.8
20260504081858 10 215 1.6 3.2 0.00 0.00 0.00 70 1004.3
20260504081354 10 215 1.6 1.6 0.00 0.00 0.00 70 1004.2
20260504080850 10 215 1.6 3.2 0.00 0.00 0.00 69 1004.4
20260504080348 10 215 1.6 1.6 0.00 0.00 0.00 69 1004.6
20260504070315 11 223 1.6 3.2 0.00 0.00 0.00 64 1005.3
20260504060236 12 222 4.8 4.8 0.00 0.00 0.00 60 1006.2
20260504050703 13 219 3.2 3.2 0.00 0.00 0.00 53 1006.8
20260504050200 13 219 3.2 3.2 0.00 0.00 0.00 53 1006.7
20260504045657 13 219 3.2 3.2 0.00 0.00 0.00 53 1006.7
20260504045152 14 219 3.2 3.2 0.00 0.00 0.00 53 1006.8
20260504044650 13 219 3.2 3.2 0.00 0.00 0.00 53 1006.7
20260504044147 13 219 3.2 3.2 0.00 0.00 0.00 54 1006.8
20260504043644 13 219 1.6 3.2 0.00 0.00 0.00 55 1006.8
20260504043141 13 219 1.6 3.2 0.00 0.00 0.00 56 1006.9
20260504042639 13 218 3.2 4.8 0.00 0.00 0.00 57 1006.8
20260504042135 13 217 3.2 3.2 0.00 0.00 0.00 57 1006.9
20260504041630 13 217 0.0 1.6 0.00 0.00 0.00 58 1006.9
20260504041127 13 215 1.6 3.2 0.00 0.00 0.00 56 1006.9
20260504040624 13 215 3.2 3.2 0.00 0.00 0.00 53 1006.9
20260504040121 15 219 3.2 4.8 0.00 0.00 0.00 51 1007.3
20260504035618 15 232 1.6 3.2 0.00 0.00 0.00 51 1007.2
20260504035114 14 232 3.2 3.2 0.00 0.00 0.00 51 1007.2
20260504034612 14 233 0.0 3.2 0.00 0.00 0.00 52 1007.3
20260504034109 15 232 1.6 3.2 0.00 0.00 0.00 51 1007.3
20260504033607 15 231 3.2 3.2 0.00 0.00 0.00 51 1007.5
20260504033104 15 232 4.8 4.8 0.00 0.00 0.00 51 1007.6
20260504032601 15 236 1.6 1.6 0.00 0.00 0.00 52 1007.7
20260504032058 15 236 1.6 1.6 0.00 0.00 0.00 52 1007.7
20260504031555 15 236 1.6 1.6 0.00 0.00 0.00 51 1007.9
20260504031050 15 235 3.2 3.2 0.00 0.00 0.00 49 1007.7
20260504030548 15 238 3.2 3.2 0.00 0.00 0.00 50 1008.0
20260504030044 15 239 1.6 1.6 0.00 0.00 0.00 51 1007.8
20260504025542 15 239 1.6 1.6 0.00 0.00 0.00 49 1007.7
20260504025038 16 239 1.6 3.2 0.00 0.00 0.00 47 1007.9
20260504024535 16 239 3.2 3.2 0.00 0.00 0.00 45 1007.7
20260504024032 17 240 3.2 3.2 0.00 0.00 0.00 44 1007.6
20260504023529 17 240 1.6 3.2 0.00 0.00 0.00 43 1007.8
20260504023025 17 240 1.6 3.2 0.00 0.00 0.00 43 1007.9
20260504022520 17 240 1.6 3.2 0.00 0.00 0.00 42 1007.7
20260504022017 17 241 1.6 1.6 0.00 0.00 0.00 42 1007.6
20260504021515 17 241 1.6 1.6 0.00 0.00 0.00 43 1007.6
20260504021012 17 241 1.6 3.2 0.00 0.00 0.00 44 1007.7
20260504020508 17 223 3.2 4.8 0.00 0.00 0.00 42 1007.6
20260504020005 18 251 3.2 3.2 0.00 0.00 0.00 39 1007.7
20260504015501 18 267 0.0 1.6 0.00 0.00 0.00 39 1007.8
20260504014957 18 255 1.6 3.2 0.00 0.00 0.00 40 1007.6
20260504014453 18 280 1.6 1.6 0.00 0.00 0.00 41 1007.8
20260504013950 18 286 0.0 1.6 0.00 0.00 0.00 38 1007.4
20260504013449 18 287 0.0 0.0 0.00 0.00 0.00 37 1007.5
20260504012944 19 287 0.0 0.0 0.00 0.00 0.00 35 1007.5
20260504012443 19 269 0.0 0.0 0.00 0.00 0.00 37 1007.5
20260504011940 19 264 3.2 3.2 0.00 0.00 0.00 36 1007.5
20260504011436 19 278 0.0 0.0 0.00 0.00 0.00 36 1007.3
20260504010932 19 278 0.0 0.0 0.00 0.00 0.00 36 1007.5
20260504010428 20 278 0.0 1.6 0.00 0.00 0.00 36 1007.6
20260504005925 20 279 1.6 1.6 0.00 0.00 0.00 35 1007.5
20260504005421 21 289 0.0 0.0 0.00 0.00 0.00 32 1007.4
20260504004919 22 289 0.0 1.6 0.00 0.00 0.00 31 1007.5
20260504004417 22 289 0.0 0.0 0.00 0.00 0.00 30 1007.6
20260504003914 22 289 0.0 4.8 0.00 0.00 0.00 29 1007.6
20260504003410 22 302 1.6 3.2 0.00 0.00 0.00 29 1007.5
20260504002907 22 301 1.6 4.8 0.00 0.00 0.00 28 1007.6
20260504002403 22 294 3.2 8.0 0.00 0.00 0.00 29 1007.7
20260504001901 23 290 1.6 4.8 0.00 0.00 0.00 29 1007.6
20260504001358 23 265 1.6 3.2 0.00 0.00 0.00 29 1007.7
20260504000854 23 273 1.6 4.8 0.00 0.00 0.00 29 1007.6
20260504000354 23 250 3.2 8.0 0.00 0.00 0.00 28 1007.8
20260503235849 23 288 1.6 4.8 0.00 0.00 0.00 28 1007.6
20260503235348 23 315 6.4 9.7 0.00 0.00 0.00 27 1007.6
20260503234844 23 263 6.4 8.0 0.00 0.00 0.00 27 1007.8
20260503234342 23 334 8.0 16.1 0.00 0.00 0.00 27 1007.6
20260503233840 23 262 3.2 16.1 0.00 0.00 0.00 27 1007.6
20260503233336 23 292 8.0 16.1 0.00 0.00 0.00 27 1007.7
20260503232832 24 289 3.2 11.3 0.00 0.00 0.00 28 1007.6
20260503232329 23 326 8.0 14.5 0.00 0.00 0.00 27 1007.7
20260503231827 23 285 8.0 11.3 0.00 0.00 0.00 27 1007.4
20260503231323 23 348 3.2 11.3 0.00 0.00 0.00 32 1007.7
20260503230819 24 314 1.6 14.5 0.00 0.00 0.00 27 1007.4
20260503230317 24 308 4.8 14.5 0.00 0.00 0.00 27 1007.6
20260503225814 24 281 1.6 4.8 0.00 0.00 0.00 30 1007.7
20260503225309 23 298 4.8 17.7 0.00 0.00 0.00 29 1007.6
20260503224806 23 292 4.8 16.1 0.00 0.00 0.00 28 1007.7
20260503224304 23 287 12.9 25.7 0.00 0.00 0.00 28 1007.5
20260503223801 23 298 3.2 9.7 0.00 0.00 0.00 30 1007.6
20260503223259 23 265 6.4 16.1 0.00 0.00 0.00 28 1007.5
20260503222755 23 272 4.8 14.5 0.00 0.00 0.00 30 1007.6
20260503222254 23 230 6.4 20.9 0.00 0.00 0.00 31 1007.5
20260503221751 24 253 3.2 3.2 0.00 0.00 0.00 30 1007.6
20260503221243 23 288 8.0 12.9 0.00 0.00 0.00 30 1007.8
20260503220739 23 275 19.3 22.5 0.00 0.00 0.00 29 1007.7
20260503220237 23 239 8.0 14.5 0.00 0.00 0.00 30 1007.8
20260503215733 23 247 8.0 20.9 0.00 0.00 0.00 30 1007.8
20260503215231 23 228 8.0 11.3 0.00 0.00 0.00 30 1007.6
20260503214729 23 291 8.0 12.9 0.00 0.00 0.00 30 1007.8
20260503214225 23 296 9.7 20.9 0.00 0.00 0.00 30 1007.9
20260503213723 23 302 4.8 9.7 0.00 0.00 0.00 31 1007.8
20260503213220 23 283 4.8 12.9 0.00 0.00 0.00 30 1008.0
20260503212717 22 316 8.0 11.3 0.00 0.00 0.00 31 1007.7
20260503212215 23 261 3.2 8.0 0.00 0.00 0.00 31 1007.9
20260503211712 23 294 11.3 12.9 0.00 0.00 0.00 29 1007.9
20260503211207 23 249 8.0 16.1 0.00 0.00 0.00 30 1008.0
20260503210658 23 320 4.8 16.1 0.00 0.00 0.00 31 1007.9
20260503210155 23 316 4.8 17.7 0.00 0.00 0.00 31 1008.1
20260503205650 23 298 8.0 20.9 0.00 0.00 0.00 30 1008.3
20260503205147 23 274 11.3 22.5 0.00 0.00 0.00 30 1008.1
20260503204643 23 285 4.8 11.3 0.00 0.00 0.00 29 1008.2
20260503204141 23 332 8.0 12.9 0.00 0.00 0.00 28 1008.1
20260503203638 23 255 9.7 17.7 0.00 0.00 0.00 30 1008.4
20260503203136 23 297 12.9 20.9 0.00 0.00 0.00 31 1008.4
20260503202633 23 265 4.8 8.0 0.00 0.00 0.00 31 1008.4
20260503202131 23 259 9.7 17.7 0.00 0.00 0.00 30 1008.2
20260503201629 23 299 11.3 12.9 0.00 0.00 0.00 29 1008.5
20260503201126 23 317 8.0 11.3 0.00 0.00 0.00 29 1008.6
20260503200621 23 299 6.4 12.9 0.00 0.00 0.00 31 1008.5
20260503200118 22 316 3.2 17.7 0.00 0.00 0.00 32 1008.6
20260503195615 22 306 6.4 27.4 0.00 0.00 0.00 31 1008.5
20260503195111 22 283 11.3 16.1 0.00 0.00 0.00 31 1008.7
20260503194609 22 319 11.3 22.5 0.00 0.00 0.00 31 1008.8
20260503194103 22 324 0.0 11.3 0.00 0.00 0.00 32 1008.3
20260503193600 22 278 4.8 16.1 0.00 0.00 0.00 31 1008.5
20260503193056 22 299 11.3 22.5 0.00 0.00 0.00 30 1008.5
20260503192553 22 287 9.7 24.1 0.00 0.00 0.00 31 1008.5
20260503192049 22 303 14.5 20.9 0.00 0.00 0.00 30 1008.7
20260503191546 22 293 8.0 20.9 0.00 0.00 0.00 30 1008.7
20260503191042 22 295 14.5 25.7 0.00 0.00 0.00 31 1008.8
20260503190539 22 282 14.5 16.1 0.00 0.00 0.00 32 1008.5